Location: ?
(35.3979°N, 139.1924°E)
Time: 00:43:22
(UTC+00:00)

Daily predictions for brighter satellites

Satellite Brightness Start Highest point End
(mag) Time Altitude Azimuth Time Altitude Azimuth Time Altitude Azimuth
SL-24 R/B 4.1 08:59:26 10° SSE 09:03:42 76° ENE 09:08:11 10° N
SL-16 R/B 3.0 08:58:32 10° NNW 09:04:04 57° WSW 09:09:34 10° S
SKYMED 2 4.2 09:00:09 10° N 09:04:27 63° WNW 09:08:43 10° SSW
DELTA 2 R/B (1) 3.9 08:59:03 10° WNW 09:04:33 62° N 09:10:02 10° E
GP-B 3.1 09:00:30 10° N 09:04:56 71° E 09:09:21 10° S
USA 234 4.2 09:00:35 10° ENE 09:05:49 25° ESE 09:11:01 10° S
Cosmos 1544 3.1 09:02:14 10° S 09:05:53 89° E 09:09:33 10° N
Cosmos 2263 Rocket 2.2 09:01:47 10° SSW 09:07:20 86° ESE 09:12:56 10° NNE
Cosmos 1975 2.9 09:04:10 10° S 09:08:10 58° E 09:12:11 10° NNE
CZ-2C R/B 1.0 09:06:31 10° WSW 09:10:10 66° S 09:13:35 10° E
CZ-2C R/B 3.7 09:05:44 10° SE 09:10:27 38° ENE 09:15:25 10° N
Cosmos 923 Rocket 4.0 09:05:40 10° NNW 09:10:55 81° ENE 09:16:06 10° SSE
Meteor 2-9 Rocket 4.4 09:06:08 10° S 09:11:54 61° E 09:17:38 10° NNE
CZ-4 R/B 1.5 09:07:48 10° SSE 09:11:56 59° ENE 09:16:05 10° N
Cosmos 1844 Rocket 4.0 09:11:18 10° SE 09:14:45 17° E 09:18:12 10° ENE
Cosmos 1782 Rocket 3.5 09:15:29 10° S 09:19:48 63° E 09:24:11 10° NNE
Cosmos 1908 Rocket 4.2 09:17:39 10° SSW 09:21:56 61° W 09:26:16 10° N
BREEZE-M DEB (TANK) 2.8 09:20:04 10° SSW 09:22:31 51° SE 09:27:55 10° NE
Cosmos 1842 3.3 09:23:38 10° N 09:27:27 57° E 09:31:15 10° SSE
Cosmos 1943 3.5 09:24:00 10° N 09:29:28 48° ENE 09:34:55 10° SE
Cosmos 1898 Rocket 4.3 09:25:30 10° SSW 09:30:33 55° WNW 09:35:38 10° N
NOSS 2-2 (E) 3.5 09:28:40 10° SW 09:32:08 62° WNW 09:35:45 10° NNE
ISS -3.0 09:30:32 10° WSW 09:33:49 53° NW 09:37:08 10° NE
CSL-04 Debris 4.1 09:30:41 10° SSE 09:36:00 65° ENE 09:41:20 10° N
ATLAS 2AS CENTAUR R/B 4.2 09:32:24 10° SE 09:36:43 16° ESE 09:41:06 10° ENE
NOSS 2-2 (D) 3.4 09:37:14 10° SW 09:40:44 66° WNW 09:44:19 10° NNE
Cosmos 1707 3.7 09:37:28 10° NNE 09:40:45 27° ENE 09:42:35 18° ESE
Cosmos 1437 2.4 09:38:23 10° N 09:41:22 67° E 09:44:19 10° SSE
GOES 2 Rocket 4.5 09:38:30 10° SSW 09:41:42 21° SSE 09:43:37 16° SE
Cosmos 1464 Rocket 4.1 09:38:38 10° SSE 09:44:30 51° E 09:50:25 10° NNE
CSL-04 Rocket 3.6 09:39:31 10° SSE 09:44:52 75° ENE 09:50:20 10° N
Meteor 1-21 4.1 09:39:53 10° N 09:45:30 76° E 09:51:04 10° SSE
Cosmos 2084 Rocket 3.7 09:42:02 10° NNW 09:46:28 58° NE 09:49:40 18° SE
Cosmos 372 Rocket 3.9 09:41:29 10° S 09:46:39 66° ESE 09:51:51 10° NNE
Cosmos 1975 Rocket 2.9 09:45:02 10° N 09:49:22 76° E 09:53:39 10° S
Cosmos 1603 3.6 09:43:57 10° NNW 09:49:38 87° ENE 09:55:14 10° SSE
IRIS 4.2 09:46:46 10° SW 09:50:37 58° SSE 09:51:39 33° E
Cosmos 2150 Rocket 4.3 09:48:54 10° S 09:53:56 46° ESE 09:59:05 10° NNE
Sich 1 Rocket 3.8 09:56:22 10° SSW 10:00:48 74° W 10:05:19 10° N
MOS 1 Rocket 3.2 09:56:31 10° N 10:00:55 78° WNW 10:05:10 10° SSW
HJ-1C 3.5 09:58:10 10° S 10:01:26 70° W 10:04:43 10° NNW
Cosmos 1125 Rocket 4.0 09:58:20 10° SSE 10:03:06 35° E 10:07:54 10° NE
USA 186 2.8 10:03:57 29° NE 10:03:57 29° NE 10:06:07 10° N
MINOTAUR IV R/B 4.5 09:59:30 10° NNW 10:03:59 80° ENE 10:07:09 19° SSE
Cosmos 1891 Rocket 4.4 10:05:52 10° S 10:12:03 87° W 10:18:10 10° N
SL-08 RB Rocket 3.6 10:15:55 29° SSE 10:18:11 69° ENE 10:22:44 10° N
Okean 2 Rocket 3.3 10:15:26 10° SSW 10:19:55 73° W 10:24:25 10° N
H-2A R/B 2.6 10:18:01 10° S 10:22:49 54° W 10:27:44 10° NNW
USA 102 4.3 10:23:05 55° SSE 10:24:27 86° ENE 10:29:50 10° NNW
Cosmos 1300 Rocket 4.2 10:25:51 10° SSW 10:30:08 55° W 10:34:29 10° N
ARGOS 3.5 10:26:35 10° S 10:31:52 64° WSW 10:37:12 10° NNW
Milstar 3 Cent rocket 3.1 10:26:52 10° SW 10:32:27 30° S 10:32:39 30° SSE
In-Cosmos 22 3.9 10:28:29 10° N 10:33:48 85° E 10:36:11 35° SSE
Cosmos 1048 Rocket 4.3 10:31:43 10° N 10:36:39 47° ENE 10:36:39 47° ENE
CZ-2C R/B 2.9 10:35:45 10° N 10:41:18 74° WNW 10:46:53 10° SSW
Cosmos 2034 Rocket 4.1 10:35:26 10° S 10:41:47 76° W 10:48:10 10° N
Nadezhda 4 Rocket 3.8 10:37:44 10° N 10:43:52 82° E 10:46:12 41° SSE
Cosmos 1844 3.7 10:42:25 10° SSW 10:48:08 84° WNW 10:53:50 10° NNE
USA 234 3.4 10:42:34 10° NE 10:49:06 74° NW 10:55:37 10° SW
MOS 1 4.2 10:47:43 48° SSE 10:49:27 87° WSW 10:55:11 10° NNW
CZ-2C R/B 2.6 10:46:15 10° W 10:48:13 30° W 10:48:13 30° W
DELTA 2 R/B (1) 3.6 10:45:36 10° WNW 10:51:04 63° SSW 10:51:27 61° S
Ariane Rocket 3.2 10:51:52 44° SSW 10:53:20 65° WSW 10:58:23 10° NNW
Cosmos 1536 Rocket 3.8 10:49:01 10° N 10:53:04 68° NW 10:53:04 68° NW
Exosat Rocket 3.8 10:49:24 10° SSW 10:55:37 75° WNW 11:00:41 10° NNE
Cosmos 1844 Rocket 3.3 10:52:40 10° SW 10:58:06 53° WNW 11:03:34 10° NNE
Longmarch 3A Rocket 4.3 10:56:28 10° SW 10:56:42 12° SW 10:56:42 12° SW
Cosmos 1025 Rocket 4.4 11:00:37 10° NNW 11:04:40 37° W 11:05:23 35° WSW
NOSS 3-2 (C) 4.4 10:57:50 10° NNW 11:05:16 47° NE 11:05:47 47° ENE
SPOT 3 Rocket 4.3 11:09:37 44° N 11:09:37 44° N 11:13:09 10° N
ISS -0.4 11:10:57 10° NNW 11:11:11 10° NNW 11:11:11 10° NNW
Cosmos 1634 Rocket 4.2 11:15:59 61° NNE 11:15:59 61° NNE 11:20:59 10° N
ATLAS 2AS CENTAUR R/B 2.9 11:18:49 10° SSW 11:26:42 88° ESE 11:34:42 10° NNE
Resurs 01 Rocket 4.1 11:35:01 17° NNW 11:35:01 17° NNW 11:36:07 10° NNW
CENTAUR R/B 3.2 11:35:30 10° NNW 11:43:13 71° NNE 11:43:13 71° NNE
ATLAS 3B R/B 4.3 11:44:17 10° N 11:47:58 24° NNE 11:47:58 24° NNE
